Overview Statistics Trail Chart Weather Telemetry Raw packets
 

This is the latest recevied weather packets stored in our database for station/object K7OWW-2. If no packets are shown the sender has not sent any weather packets the latest 10 day(s).

<< 49 50 51 52 53 >>
Time Temp. Humidity Pressure Rain* Wind** Luminosity Snow
1787858044 26.11° C 33% 1013.2 hPa 0 mm - - -
1787857742 25.56° C 33% 1013.2 hPa 0 mm - - -
1787857142 25° C 35% 1013.4 hPa 0 mm - - -
1787856542 24.44° C 38% 1013.5 hPa 0 mm - - -
1787856244 23.33° C 39% 1013.6 hPa 0 mm - - -
1787855942 23.33° C 38% 1013.7 hPa 0 mm - - -
1787855342 22.78° C 41% 1013.9 hPa 0 mm - - -
1787854742 22.22° C 43% 1014 hPa 0 mm - - -
1787854444 21.67° C 42% 1014.1 hPa 0 mm - - -
1787854142 21.67° C 43% 1014.1 hPa 0 mm - - -
1787853542 21.67° C 43% 1014.2 hPa 0 mm - - -
1787852942 21.67° C 43% 1014.2 hPa 0 mm - - -
1787852645 21.67° C 43% 1014.3 hPa 0 mm - - -
1787852342 21.11° C 43% 1014.3 hPa 0 mm - - -
1787851742 20.56° C 46% 1014.4 hPa 0 mm - - -
1787851142 20° C 47% 1014.4 hPa 0 mm - - -
1787850845 19.44° C 48% 1014.5 hPa 0 mm - - -
1787850542 19.44° C 48% 1014.5 hPa 0 mm - - -
1787849942 19.44° C 51% 1014.6 hPa 0 mm - - -
1787849342 18.89° C 51% 1014.5 hPa 0 mm - - -
1787848742 17.78° C 56% 1014.6 hPa 0 mm - - -
1787848142 17.78° C 58% 1014.6 hPa 0 mm - - -
1787847542 16.67° C 60% 1014.6 hPa 0 mm - - -
1787847245 16.11° C 62% 1014.8 hPa 0 mm - - -
1787846942 15.56° C 66% 1014.8 hPa 0 mm - - -

* Rain latest hour (hover to see other rain measurements)
** Current wind speed in m/s (hover to see current wind gust speed)